Theta_e
357 361 363 364 363 362 363 363 363 364 363 362 361 361 360 360 361 362 363 362 362 362 359 358 359 361 361 359 360 361 361 361 361 358 355 354 352 350 347 345 344 341 343
361 362 363 364 363 362 362 362 363 363 363 363 363 363 361 361 362 362 362 362 362 361 357 357 358 359 359 358 359 361 362 362 361 360 355 352 351 349 347 346 345 342 343
360 361 361 362 363 362 362 361 362 362 362 363 363 363 362 362 362 362 362 362 362 359 356 356 357 358 359 359 359 359 361 361 359 359 355 350 346 348 346 345 344 343 341
360 360 361 363 363 361 360 361 361 361 362 362 362 362 362 362 362 362 362 362 361 357 355 355 356 358 359 357 357 358 359 360 360 358 353 350 344 347 346 344 343 342 340
358 358 360 362 361 361 360 359 360 361 361 361 362 362 362 362 361 361 362 362 361 357 355 355 355 357 358 355 355 356 356 356 355 356 350 346 345 344 344 343 342 341 340
358 358 363 362 361 361 359 359 360 360 361 361 361 362 362 362 362 361 361 360 360 359 356 355 356 356 355 354 353 353 353 354 349 351 347 346 344 346 344 343 342 341 339
356 359 361 363 362 361 359 359 359 360 360 360 361 361 361 361 361 361 361 361 361 361 358 356 356 354 353 352 352 351 351 352 347 347 345 344 344 347 344 342 341 340 338
356 358 360 362 362 361 360 360 359 359 359 359 360 360 360 360 360 361 361 362 361 360 359 356 355 352 350 349 349 350 350 350 347 345 343 344 346 346 343 341 340 339 337
356 357 357 359 361 361 361 360 359 359 358 359 358 358 359 359 360 360 361 361 361 360 358 357 354 352 349 348 348 348 349 349 344 345 342 343 348 345 343 341 340 338 337
351 353 355 358 358 357 357 360 360 359 359 358 359 359 358 358 359 359 358 359 360 359 358 356 353 351 349 347 346 347 347 349 343 343 343 343 348 345 343 341 340 338 336
352 349 354 354 356 357 356 358 359 358 358 359 358 359 356 354 356 357 357 358 359 358 357 355 353 351 348 347 346 346 345 337 342 342 342 347 348 345 343 341 340 337 336
347 349 351 353 353 354 357 355 355 355 355 354 354 354 354 353 354 355 356 357 358 358 356 355 352 350 348 338 335 339 341 337 340 342 341 348 349 346 343 341 339 337 335
346 349 351 353 353 353 353 355 355 355 355 354 352 352 352 349 349 352 352 355 355 356 351 352 348 345 340 337 334 331 334 335 342 342 343 350 349 346 343 341 339 337 335
334 349 350 351 353 352 352 353 352 353 353 352 352 352 348 346 346 347 348 350 350 350 347 344 342 340 338 336 332 331 330 334 340 342 343 351 350 347 344 341 339 336 335
304 316 347 350 351 352 350 352 352 351 351 351 351 349 347 344 343 346 346 348 348 346 345 341 339 337 335 333 332 332 332 335 340 342 345 351 350 348 344 341 339 336 334
305 306 319 348 351 351 350 350 350 350 350 349 349 348 347 345 344 344 344 345 346 345 344 341 338 335 333 332 333 333 334 339 341 342 345 349 349 348 345 341 339 337 335
304 306 311 343 350 349 350 349 350 349 349 349 349 348 348 346 343 343 344 344 345 344 343 341 337 335 334 334 334 335 336 341 341 342 342 346 347 347 346 343 339 336 333
303 304 307 326 347 347 348 349 349 349 349 350 350 348 347 347 344 342 342 343 344 343 342 339 336 335 334 334 334 334 339 340 341 342 343 342 341 343 345 344 340 335 337
304 304 305 308 337 346 346 349 349 349 349 349 350 349 348 348 344 342 342 343 344 342 341 340 336 336 334 333 333 332 340 339 340 341 341 338 338 339 340 343 340 338 336
306 305 304 305 317 344 345 344 345 342 348 346 348 348 348 348 346 342 342 343 343 342 340 338 338 334 334 333 335 339 342 341 340 340 339 338 337 337 336 336 336 334 331
311 309 307 305 307 335 344 342 341 341 343 344 346 348 348 348 347 343 342 341 342 341 340 339 337 334 330 335 337 335 333 338 338 339 339 335 334 333 333 332 328 323 322
311 312 313 306 306 317 341 343 338 340 341 344 344 346 346 349 348 345 343 341 341 342 340 337 335 332 333 338 336 333 329 329 328 328 330 334 330 330 328 324 318 316 314
310 311 313 313 307 310 328 339 335 337 337 338 339 340 342 345 349 347 344 343 341 341 340 337 335 334 330 333 339 335 328 326 325 326 322 323 324 324 320 318 313 312 313
308 310 310 314 315 314 316 333 336 336 334 337 339 341 343 344 344 347 346 344 342 340 341 338 336 336 334 331 336 336 334 329 324 318 319 317 318 319 316 313 311 311 312
306 306 307 309 311 315 317 323 333 334 335 333 337 337 341 342 344 344 344 344 342 340 340 339 335 334 334 335 336 331 330 328 327 320 314 311 311 312 312 311 310 311 311
305 305 304 306 307 312 317 319 322 329 330 328 330 333 335 338 341 343 343 343 343 341 340 337 336 334 333 337 337 334 331 328 325 319 315 310 308 307 308 309 310 310 309
Wind_Speed
4 8 14 14 13 14 13 14 15 16 18 18 19 20 19 18 18 18 17 16 13 11 10 10 12 14 14 14 13 11 9 10 11 11 12 12 11 11 11 11 11 10 13
10 11 16 14 13 15 15 14 14 15 16 18 19 19 19 17 17 17 16 15 13 12 11 11 12 13 13 13 12 10 8 9 9 10 11 11 11 11 11 12 12 11 12
9 9 13 15 12 14 15 14 14 15 15 16 16 17 17 17 17 16 16 15 14 14 12 12 13 13 13 12 11 9 8 7 7 8 10 6 7 11 11 12 12 12 12
8 5 7 14 13 14 14 13 13 14 15 15 15 15 16 15 15 15 15 14 13 14 13 12 12 12 11 11 9 8 5 6 6 8 6 5 8 10 11 11 11 11 11
7 5 6 14 14 14 15 14 12 12 14 15 15 15 15 15 14 14 13 13 13 14 13 12 12 9 9 10 7 5 3 1 3 8 5 6 6 8 10 10 10 10 11
7 6 8 10 12 12 15 15 15 13 13 14 15 15 15 15 14 12 11 12 13 12 12 12 10 9 8 8 6 4 2 3 3 8 7 8 6 10 10 10 9 10 10
7 6 7 11 10 11 12 14 15 15 14 13 14 15 15 15 13 12 11 11 11 11 10 10 8 8 7 6 5 3 3 5 5 8 7 7 7 9 10 11 10 9 9
6 5 6 12 12 11 11 11 12 13 14 14 13 14 14 14 13 11 10 10 10 10 9 9 8 7 6 6 4 3 4 5 5 7 7 6 9 10 10 10 9 8 9
3 3 5 6 9 12 12 12 11 11 12 13 12 11 12 12 12 11 10 9 8 8 8 8 7 7 6 5 4 3 3 5 5 5 7 5 9 10 10 9 9 8 9
3 1 2 5 4 5 7 13 12 12 13 12 12 11 10 10 11 11 10 9 8 7 7 6 6 6 5 5 4 3 3 5 4 5 4 4 9 10 9 9 8 8 9
1 3 4 7 7 7 5 8 11 15 13 12 12 11 8 4 5 8 8 9 9 8 7 6 6 5 5 4 4 3 2 1 4 4 4 9 9 10 9 9 8 7 8
5 5 5 7 8 7 6 5 5 6 7 6 6 6 5 7 6 6 8 11 9 8 7 6 5 4 3 1 1 2 1 2 3 4 4 12 11 10 10 9 8 7 6
4 3 8 9 8 7 7 5 4 3 4 4 6 6 6 7 6 6 3 4 3 7 3 3 2 2 2 2 1 1 2 3 2 4 7 13 11 10 9 8 8 6 5
6 10 7 9 11 11 5 7 7 6 4 5 6 8 8 6 7 8 6 7 4 2 4 3 2 2 2 3 3 3 3 3 3 4 6 13 10 10 10 8 7 6 5
9 9 9 9 11 10 9 6 7 8 7 8 7 10 9 9 8 6 8 7 6 3 3 3 3 3 2 2 3 4 4 4 6 4 4 12 11 10 10 9 7 6 4
9 11 5 10 12 10 10 11 9 7 8 7 7 8 11 10 9 8 8 8 6 4 3 3 3 3 3 2 3 4 4 5 6 7 5 8 11 10 10 8 6 5 4
8 8 10 10 10 11 14 10 7 8 8 8 8 10 11 11 10 8 7 6 6 5 5 3 2 2 3 2 3 3 3 5 6 6 5 5 6 9 7 7 6 5 4
9 9 9 8 10 12 10 10 9 8 8 8 8 7 12 11 10 7 6 7 6 5 5 4 3 3 4 3 2 3 2 3 5 6 5 4 3 4 6 7 7 5 8
11 10 10 8 10 13 14 10 10 10 8 7 7 7 11 11 11 8 6 6 6 5 5 5 3 4 3 3 3 1 1 2 4 4 6 4 3 4 3 5 9 10 10
11 10 9 7 9 11 9 6 3 2 6 5 7 8 10 10 12 10 7 6 6 5 5 5 5 3 2 2 1 3 2 2 3 3 3 4 4 4 4 6 7 8 11
10 11 10 7 9 6 9 7 6 9 9 8 9 14 13 12 12 11 8 7 6 7 8 8 4 5 3 4 4 4 4 4 4 3 2 3 4 4 7 8 6 4 5
11 9 13 9 8 7 7 8 4 5 7 9 7 7 8 10 12 12 11 10 10 8 8 8 7 3 3 6 4 3 3 2 4 5 4 4 5 5 9 8 8 7 5
14 14 13 13 7 5 8 3 3 3 3 3 3 5 10 13 13 14 13 10 11 11 9 9 10 9 5 5 5 4 3 3 3 4 8 5 6 6 7 8 7 7 6
13 10 10 11 11 7 7 5 11 10 10 8 10 11 10 13 14 12 13 13 12 10 11 10 9 8 5 6 2 2 1 6 4 4 5 7 6 7 7 6 5 6 5
9 9 10 10 10 11 7 6 6 9 6 5 6 9 10 9 11 12 11 12 11 9 12 10 10 10 8 6 7 4 1 2 3 4 4 3 5 5 5 5 5 5 6
12 13 12 12 12 11 9 6 8 8 8 4 4 6 6 6 7 9 9 10 10 10 11 10 12 12 11 8 8 6 5 5 4 4 4 4 4 3 4 4 5 5 6
Wind_Direction
175 146 149 138 134 122 113 111 113 115 121 126 128 129 136 139 139 138 138 135 132 129 121 115 111 114 115 117 118 121 121 115 107 104 100 97 97 88 85 81 79 76 78
139 148 153 147 137 133 128 121 116 115 120 125 127 133 138 141 142 140 139 136 135 135 132 126 121 123 125 126 125 125 125 117 115 113 106 103 97 90 82 81 77 77 74
128 140 151 146 139 136 133 132 127 124 124 126 130 135 140 143 144 146 144 144 147 143 137 132 132 136 131 128 127 126 129 127 117 117 109 98 91 88 83 79 78 76 73
127 124 142 151 143 138 134 134 134 133 132 131 134 137 139 142 145 148 148 147 146 144 142 139 136 140 134 129 129 130 126 131 152 143 126 113 93 88 88 87 83 78 73
116 118 155 157 149 144 142 142 141 140 139 139 139 140 142 145 148 150 152 148 148 148 146 145 143 141 137 133 127 123 113 107 159 149 120 109 103 101 93 86 85 80 74
112 122 151 159 157 150 148 150 148 151 148 149 149 148 148 149 151 154 154 151 150 151 152 150 143 139 136 129 130 121 64 30 100 147 131 119 117 116 106 93 83 77 77
139 143 148 155 163 162 157 157 158 157 156 158 159 156 155 155 155 157 157 156 153 151 153 145 140 136 138 131 122 95 44 69 115 135 127 121 126 123 112 102 92 87 79
142 140 151 170 169 168 167 169 167 164 161 162 165 164 161 160 159 161 161 163 154 155 154 151 150 146 146 132 125 95 44 77 117 125 131 137 145 129 115 107 103 94 85
35 141 158 170 181 180 171 170 171 171 169 167 167 168 169 166 165 167 170 169 165 163 165 159 158 154 150 141 141 145 98 110 134 148 144 153 149 129 122 119 111 99 85
29 351 198 188 185 173 175 181 176 176 177 173 172 168 172 174 174 176 176 178 176 181 183 169 175 170 161 153 164 175 152 132 153 158 152 166 150 139 135 121 114 101 88
196 218 216 217 204 197 189 189 183 183 183 180 178 174 168 165 181 190 190 190 189 195 194 193 193 186 175 162 188 214 157 166 168 169 168 173 162 153 141 132 119 107 93
218 220 196 217 217 209 204 194 178 185 187 179 174 172 161 192 197 194 202 203 198 203 205 207 204 209 154 139 275 296 191 204 195 178 179 178 175 165 150 145 131 119 106
278 221 198 203 214 205 208 181 186 188 179 182 174 173 173 195 208 210 206 208 197 207 202 207 224 201 155 170 231 246 224 209 196 187 190 181 180 169 153 148 138 129 113
240 236 220 200 204 209 186 194 195 190 180 194 194 189 196 196 202 210 209 212 201 190 200 203 218 217 174 195 231 243 232 211 197 198 193 181 175 168 161 157 150 142 123
263 256 232 197 206 206 190 193 195 195 190 185 188 209 204 202 202 199 211 206 211 184 196 202 219 238 215 197 245 245 242 222 201 188 187 179 174 169 167 166 161 149 128
244 262 252 225 216 190 203 195 198 194 195 187 185 199 208 207 204 198 202 204 210 195 190 198 208 227 245 195 242 234 245 219 191 181 180 175 170 171 172 167 167 151 145
281 253 249 220 205 212 200 202 199 195 194 195 193 190 203 210 209 194 186 187 203 191 185 191 195 205 255 236 232 251 229 196 187 178 164 166 163 169 157 170 172 161 150
285 271 257 229 210 205 217 204 195 190 192 204 200 192 199 209 204 200 197 199 191 178 182 186 187 220 241 239 235 250 224 186 185 170 152 143 117 158 168 180 153 144 99
286 282 276 239 219 210 210 210 203 193 192 194 197 199 200 200 191 200 208 206 182 182 189 189 189 194 212 218 247 277 147 173 173 160 162 125 131 141 157 165 128 111 107
300 293 269 259 228 220 207 204 193 178 192 178 194 195 191 202 193 188 204 200 178 183 186 175 188 187 191 172 107 63 76 118 133 123 127 123 141 138 119 104 107 108 93
335 328 314 286 244 200 205 201 213 204 206 204 200 199 193 193 195 193 201 197 192 195 197 193 169 178 186 147 119 82 46 69 73 72 93 114 116 114 107 108 98 81 76
326 324 336 309 284 223 209 200 195 189 215 210 205 206 191 200 196 199 195 195 195 207 192 183 178 172 159 178 140 119 159 68 61 51 53 90 110 115 105 96 96 86 75
344 339 335 336 323 256 243 210 120 103 82 136 185 180 204 198 198 195 194 197 191 199 207 191 191 184 176 189 182 141 156 157 135 36 47 63 86 92 97 105 95 91 76
331 326 324 343 357 316 257 235 213 212 203 200 197 207 203 198 205 200 194 194 192 195 209 199 188 198 152 176 171 147 17 138 158 149 53 44 63 90 104 101 99 80 63
331 333 329 347 350 347 324 256 247 235 237 282 192 196 198 197 194 202 195 194 196 193 203 207 184 193 196 167 173 144 142 82 92 133 139 111 70 53 82 91 82 72 46
337 341 341 354 345 341 346 300 250 251 240 206 272 186 193 189 196 196 201 200 204 200 204 201 210 188 194 181 183 163 161 156 167 142 116 100 118 75 70 58 59 52 42